WK1F-2 Weather Reports


time (UTC)temp
C
wind
direction
speed
KPH
gust
KPH
rain 1hr
cm
rain 24hr
cm
rain mn
cm
humidity
%
barometer
mb
20260906131301 26 297 6.4 14.5 0.00 0.00 0.00 92 1011.5
20260906130801 26 306 11.3 12.9 0.00 0.00 0.00 93 1011.6
20260906130301 26 299 6.4 16.1 0.00 0.00 0.00 94 1011.7
20260906125801 26 296 12.9 12.9 0.00 0.00 0.00 95 1011.7
20260906125301 26 280 4.8 14.5 0.00 0.00 0.00 95 1011.7
20260906124801 25 278 3.2 12.9 0.00 0.00 0.00 95 1011.7
20260906124301 25 309 6.4 14.5 0.00 0.00 0.00 96 1011.6
20260906123801 25 260 3.2 14.5 0.00 0.00 0.00 96 1011.5
20260906123301 25 300 9.7 17.7 0.00 0.00 0.00 96 1011.5
20260906122801 25 315 4.8 16.1 0.00 0.00 0.00 96 1011.4
20260906122301 25 273 11.3 14.5 0.00 0.00 0.00 96 1011.4
20260906121801 25 299 6.4 16.1 0.00 0.00 0.00 96 1011.4
20260906121301 25 242 3.2 14.5 0.00 0.00 0.00 96 1011.3
20260906120801 25 278 11.3 14.5 0.00 0.00 0.00 96 1011.4
20260906120301 25 271 12.9 9.7 0.00 0.00 0.00 96 1011.5
20260906115801 25 316 6.4 8.0 0.00 0.00 0.00 96 1011.6
20260906115301 25 252 0.0 8.0 0.00 0.00 0.00 96 1011.8
20260906114801 25 292 1.6 11.3 0.00 0.00 0.00 96 1011.8
20260906114301 25 317 0.0 8.0 0.00 0.00 0.00 96 1011.8
20260906113801 25 316 4.8 8.0 0.00 0.00 0.00 96 1011.9
20260906113301 25 293 0.0 8.0 0.00 0.00 0.00 96 1011.8
20260906112801 25 304 0.0 6.4 0.00 0.00 0.00 96 1011.8
20260906112301 25 265 0.0 8.0 0.00 0.00 0.00 96 1011.7
20260906111801 25 288 3.2 11.3 0.00 0.00 0.00 95 1011.6
20260906111301 25 244 1.6 12.9 0.00 0.00 0.00 95 1011.4
20260906110801 25 252 4.8 12.9 0.00 0.00 0.00 95 1011.3
20260906110301 25 285 9.7 9.7 0.00 0.00 0.00 95 1011.1
20260906105801 25 264 4.8 11.3 0.00 0.00 0.00 95 1011.0
20260906105301 25 261 6.4 9.7 0.00 0.00 0.00 95 1010.9
20260906104801 25 282 3.2 9.7 0.00 0.00 0.00 95 1010.9
20260906104301 25 310 6.4 9.7 0.00 0.00 0.00 95 1010.8
20260906103801 25 256 3.2 8.0 0.00 0.00 0.00 94 1010.7
20260906103301 25 269 4.8 6.4 0.00 0.00 0.00 94 1010.6
20260906102801 25 252 3.2 8.0 0.00 0.00 0.00 94 1010.6
20260906102301 25 283 4.8 4.8 0.00 0.00 0.00 94 1010.6
20260906101801 25 211 0.0 6.4 0.00 0.00 0.00 94 1010.6
20260906101300 25 228 4.8 6.4 0.00 0.00 0.00 94 1010.7
20260906100800 25 194 0.0 8.0 0.00 0.00 0.00 94 1010.7
20260906100300 25 203 0.0 6.4 0.00 0.00 0.00 94 1010.7
20260906095800 25 312 0.0 9.7 0.00 0.00 0.00 93 1010.7
20260906095300 25 262 3.2 9.7 0.00 0.00 0.00 93 1010.6
20260906094800 25 275 4.8 11.3 0.00 0.00 0.00 93 1010.5
20260906094300 25 280 6.4 12.9 0.00 0.00 0.00 93 1010.4
20260906093800 25 272 6.4 14.5 0.00 0.00 0.00 93 1010.4
20260906093300 25 278 8.0 12.9 0.00 0.00 0.00 93 1010.4
20260906092800 25 276 11.3 11.3 0.00 0.00 0.00 93 1010.4
20260906092300 25 244 4.8 12.9 0.00 0.00 0.00 93 1010.3
20260906091800 25 268 4.8 12.9 0.00 0.00 0.00 93 1010.3
20260906091300 25 258 4.8 12.9 0.00 0.00 0.00 93 1010.3
20260906090800 25 282 8.0 11.3 0.00 0.00 0.00 92 1010.3
20260906090300 25 271 6.4 12.9 0.00 0.00 0.00 92 1010.2
20260906085800 25 262 3.2 9.7 0.00 0.00 0.00 92 1010.3
20260906085300 25 288 4.8 9.7 0.00 0.00 0.00 92 1010.3
20260906084800 25 299 6.4 11.3 0.00 0.00 0.00 92 1010.3
20260906084300 25 284 8.0 11.3 0.00 0.00 0.00 92 1010.3
20260906083800 25 258 3.2 8.0 0.00 0.00 0.00 92 1010.3
20260906083300 25 307 6.4 9.7 0.00 0.00 0.00 92 1010.2
20260906082800 25 303 4.8 9.7 0.00 0.00 0.00 91 1010.2
20260906082300 25 226 0.0 8.0 0.00 0.00 0.00 91 1010.2
20260906081800 25 306 3.2 11.3 0.00 0.00 0.00 91 1010.2
20260906081300 25 295 4.8 12.9 0.00 0.00 0.00 91 1010.3
20260906080800 25 328 3.2 12.9 0.00 0.00 0.00 91 1010.3
20260906080300 25 268 6.4 11.3 0.00 0.00 0.00 91 1010.3
20260906075800 25 273 8.0 11.3 0.00 0.00 0.00 90 1010.4
20260906075300 26 313 6.4 11.3 0.00 0.00 0.00 90 1010.3
20260906074800 26 312 8.0 12.9 0.00 0.00 0.00 90 1010.4
20260906074300 26 270 8.0 12.9 0.00 0.00 0.00 90 1010.4
20260906073800 26 297 3.2 14.5 0.00 0.00 0.00 90 1010.4
20260906073300 26 302 3.2 16.1 0.00 0.00 0.00 90 1010.4
20260906072800 26 261 9.7 12.9 0.00 0.00 0.00 90 1010.4
20260906072300 26 298 1.6 14.5 0.00 0.00 0.00 90 1010.3
20260906071800 26 302 1.6 14.5 0.00 0.00 0.00 90 1010.4
20260906071300 26 306 8.0 14.5 0.00 0.00 0.00 90 1010.4
20260906070800 26 265 4.8 12.9 0.00 0.00 0.00 90 1010.5
20260906070300 26 278 8.0 14.5 0.00 0.00 0.00 90 1010.5
20260906065800 26 285 8.0 14.5 0.00 0.00 0.00 90 1010.4
20260906065300 26 272 8.0 12.9 0.00 0.00 0.00 90 1010.4
20260906064800 26 297 3.2 16.1 0.00 0.00 0.00 90 1010.4
20260906064300 26 307 8.0 14.5 0.00 0.00 0.00 90 1010.5
20260906063800 26 266 8.0 16.1 0.00 0.00 0.00 90 1010.5
20260906063300 26 293 9.7 14.5 0.00 0.00 0.00 90 1010.5
20260906062800 26 300 11.3 14.5 0.00 0.00 0.00 90 1010.6
20260906062259 26 283 8.0 16.1 0.00 0.00 0.00 90 1010.5
20260906061800 26 234 8.0 11.3 0.00 0.00 0.00 90 1010.6
20260906061259 26 261 6.4 14.5 0.00 0.00 0.00 90 1010.7
20260906060759 26 275 9.7 12.9 0.00 0.00 0.00 90 1010.8
20260906060300 26 265 8.0 14.5 0.00 0.00 0.00 90 1010.8
20260906055759 26 278 4.8 9.7 0.00 0.00 0.00 90 1010.7
20260906055259 26 283 3.2 11.3 0.00 0.00 0.00 90 1010.7
20260906054759 26 258 6.4 12.9 0.00 0.00 0.00 90 1010.9
20260906054259 26 271 6.4 11.3 0.00 0.00 0.00 90 1011.0
20260906053759 26 251 4.8 11.3 0.00 0.00 0.00 90 1011.1
20260906053259 26 244 0.0 11.3 0.00 0.00 0.00 90 1011.1
20260906052759 26 237 4.8 9.7 0.00 0.00 0.00 90 1011.1
20260906052259 26 282 3.2 12.9 0.00 0.00 0.00 91 1011.1
20260906051759 26 302 3.2 11.3 0.00 0.00 0.00 91 1011.2
20260906051259 26 248 1.6 12.9 0.00 0.00 0.00 91 1011.1
20260906050759 26 255 6.4 14.5 0.00 0.00 0.00 91 1011.2
20260906050259 26 244 9.7 12.9 0.00 0.00 0.00 91 1011.2
20260906045759 26 259 3.2 12.9 0.00 0.00 0.00 91 1011.2
20260906045259 26 244 8.0 11.3 0.00 0.00 0.00 91 1011.1
20260906044759 26 256 6.4 12.9 0.00 0.00 0.00 91 1011.1
20260906044259 26 271 3.2 14.5 0.00 0.00 0.00 90 1011.1
20260906043759 26 194 3.2 12.9 0.00 0.00 0.00 90 1011.0
20260906043259 26 235 11.3 11.3 0.00 0.00 0.00 90 1010.9
20260906042759 26 240 6.4 12.9 0.00 0.00 0.00 90 1011.0
20260906042259 26 216 8.0 14.5 0.00 0.00 0.00 90 1011.1
20260906041759 26 249 6.4 12.9 0.00 0.00 0.00 90 1011.1
20260906041259 26 238 4.8 11.3 0.00 0.00 0.00 89 1011.2
20260906040759 26 241 8.0 11.3 0.00 0.00 0.00 89 1011.2
20260906040259 26 237 6.4 11.3 0.00 0.00 0.00 89 1011.3
20260906035759 26 237 6.4 9.7 0.00 0.00 0.00 88 1011.4
20260906035259 26 244 3.2 12.9 0.00 0.00 0.00 88 1011.5
20260906034759 26 248 3.2 11.3 0.00 0.00 0.00 88 1011.4
20260906034259 26 234 9.7 12.9 0.00 0.00 0.00 88 1011.4
20260906033759 26 236 8.0 12.9 0.00 0.00 0.00 87 1011.5
20260906033259 26 256 4.8 14.5 0.00 0.00 0.00 87 1011.6
20260906032759 26 244 9.7 12.9 0.00 0.00 0.00 87 1011.7
20260906032259 26 210 6.4 11.3 0.00 0.00 0.00 87 1011.7
20260906031759 26 227 6.4 12.9 0.00 0.00 0.00 87 1011.8
20260906031259 26 217 11.3 11.3 0.00 0.00 0.00 87 1011.8
20260906030759 26 240 8.0 11.3 0.00 0.00 0.00 86 1011.8
20260906030259 26 238 8.0 11.3 0.00 0.00 0.00 86 1011.8
20260906025759 26 229 6.4 12.9 0.00 0.00 0.00 86 1011.9
20260906025259 26 220 4.8 12.9 0.00 0.00 0.00 86 1011.9
20260906024759 26 226 8.0 12.9 0.00 0.00 0.00 86 1011.8
20260906024259 26 234 8.0 9.7 0.00 0.00 0.00 86 1011.9
20260906023759 26 210 3.2 8.0 0.00 0.00 0.00 86 1011.9
20260906023259 26 187 0.0 6.4 0.00 0.00 0.00 86 1011.9
20260906022758 26 205 3.2 4.8 0.00 0.00 0.00 86 1012.0
20260906022258 26 197 1.6 6.4 0.00 0.00 0.00 86 1012.0
20260906021758 26 206 0.0 11.3 0.00 0.00 0.00 86 1011.9
20260906021258 26 182 1.6 11.3 0.00 0.00 0.00 86 1011.8
20260906020758 26 201 6.4 9.7 0.00 0.00 0.00 86 1011.6
20260906020258 26 203 3.2 9.7 0.00 0.00 0.00 86 1011.6
20260906015758 26 191 1.6 8.0 0.00 0.00 0.00 86 1011.7
20260906015258 26 168 4.8 9.7 0.00 0.00 0.00 85 1011.6
20260906014758 26 187 6.4 9.7 0.00 0.00 0.00 85 1011.5
20260906014258 26 176 4.8 6.4 0.00 0.00 0.00 85 1011.6
20260906013758 26 164 3.2 6.4 0.00 0.00 0.00 85 1011.5
20260906013258 26 124 0.0 4.8 0.00 0.00 0.00 85 1011.4
20260906012758 26 158 3.2 8.0 0.00 0.00 0.00 85 1011.3
20260906012258 26 208 0.0 8.0 0.00 0.00 0.00 85 1011.2
20260906011758 26 133 0.0 6.4 0.00 0.00 0.00 84 1011.1
20260906011258 26 139 1.6 6.4 0.00 0.00 0.00 84 1011.1
20260906010758 27 163 3.2 9.7 0.00 0.00 0.00 84 1010.9
20260906010258 26 173 0.0 12.9 0.00 0.00 0.00 84 1010.8
20260906005758 26 152 3.2 11.3 0.00 0.00 0.00 83 1010.8
20260906005258 27 197 4.8 12.9 0.00 0.00 0.00 83 1010.7
20260906004758 27 232 1.6 9.7 0.00 0.00 0.00 83 1010.7
20260906004258 27 182 4.8 9.7 0.00 0.00 0.00 83 1010.6
20260906003758 27 165 4.8 9.7 0.00 0.00 0.00 82 1010.6
20260906003258 27 204 0.0 9.7 0.00 0.00 0.00 82 1010.5
20260906002758 27 238 4.8 9.7 0.00 0.00 0.00 82 1010.6
20260906002258 27 152 0.0 9.7 0.00 0.00 0.00 81 1010.6
20260906001758 27 207 4.8 11.3 0.00 0.00 0.00 81 1010.5
20260906001258 27 194 8.0 12.9 0.00 0.00 0.00 80 1010.4
20260906000758 27 203 8.0 9.7 0.00 0.00 0.00 80 1010.3
20260906000258 27 189 9.7 11.3 0.00 0.00 0.00 80 1010.2
20260905235758 27 192 9.7 8.0 0.00 0.00 0.00 79 1010.2
20260905235258 27 225 1.6 17.7 0.00 0.00 0.00 79 1010.3
20260905234758 27 145 4.8 14.5 0.00 0.00 0.00 79 1010.3
20260905234258 28 179 4.8 9.7 0.00 0.00 0.00 79 1010.3
20260905233758 28 189 6.4 12.9 0.00 0.00 0.00 78 1010.2
20260905233258 28 208 1.6 14.5 0.00 0.00 0.00 78 1010.4
20260905232758 28 145 3.2 14.5 0.00 0.00 0.00 78 1010.4
20260905232258 28 170 12.9 11.3 0.00 0.00 0.00 78 1010.3
20260905231758 28 168 8.0 9.7 0.00 0.00 0.00 79 1010.3
20260905231258 28 156 0.0 9.7 0.00 0.00 0.00 79 1010.2
20260905230758 28 182 8.0 9.7 0.00 0.00 0.00 79 1010.2
20260905230258 28 155 1.6 9.7 0.00 0.00 0.00 79 1010.2
20260905225758 28 177 6.4 6.4 0.00 0.00 0.00 79 1010.4
20260905225257 28 182 4.8 9.7 0.00 0.00 0.00 78 1010.5
20260905224757 28 155 0.0 11.3 0.00 0.00 0.00 78 1010.6
20260905224257 28 173 4.8 12.9 0.00 0.00 0.00 77 1010.6
20260905223757 29 159 4.8 11.3 0.00 0.00 0.00 77 1010.7
20260905223257 29 194 4.8 14.5 0.00 0.00 0.00 76 1010.6
20260905222757 29 159 6.4 14.5 0.00 0.00 0.00 76 1010.8
20260905222257 29 145 6.4 14.5 0.00 0.00 0.00 76 1010.8
20260905221757 29 248 6.4 11.3 0.00 0.00 0.00 76 1010.8
20260905221257 29 193 6.4 17.7 0.00 0.00 0.00 77 1010.8
20260905220757 29 91 6.4 19.3 0.00 0.00 0.00 76 1010.8
20260905220257 29 187 9.7 17.7 0.00 0.00 0.00 76 1010.8
20260905215757 30 179 4.8 20.9 0.00 0.00 0.00 74 1010.8
20260905215257 30 177 9.7 19.3 0.00 0.00 0.00 72 1010.9
20260905214757 31 200 9.7 0.0 0.00 0.00 0.00 68 1010.9
20260905214257 31 293 0.0 4.8 0.00 0.00 0.00 64 1011.0
20260905213757 31 295 0.0 9.7 0.00 0.00 0.00 64 1011.0
20260905213257 31 343 3.2 9.7 0.00 0.00 0.00 62 1011.0
20260905212757 31 310 6.4 9.7 0.00 0.00 0.00 63 1011.0
20260905212257 31 348 0.0 8.0 0.00 0.00 0.00 62 1011.0
20260905211757 31 331 3.2 9.7 0.00 0.00 0.00 63 1011.0
20260905211257 31 258 0.0 8.0 0.00 0.00 0.00 63 1011.0
20260905210757 31 347 0.0 9.7 0.00 0.00 0.00 64 1011.0
20260905210257 31 300 1.6 14.5 0.00 0.00 0.00 63 1011.0
20260905205757 31 309 4.8 11.3 0.00 0.00 0.00 60 1010.8
20260905205257 31 315 3.2 14.5 0.00 0.00 0.00 60 1010.9
20260905204757 32 321 4.8 12.9 0.00 0.00 0.00 58 1010.9
20260905204257 32 295 6.4 19.3 0.00 0.00 0.00 59 1010.8
20260905203757 31 302 8.0 14.5 0.00 0.00 0.00 60 1010.8
20260905203257 31 303 6.4 16.1 0.00 0.00 0.00 61 1010.8
20260905202757 31 304 12.9 19.3 0.00 0.00 0.00 61 1010.7
20260905202257 31 317 11.3 20.9 0.00 0.00 0.00 60 1010.7
20260905201757 32 306 8.0 19.3 0.00 0.00 0.00 59 1010.7
20260905201257 32 327 9.7 17.7 0.00 0.00 0.00 59 1010.7
20260905200757 32 272 12.9 17.7 0.00 0.00 0.00 59 1010.7
20260905200257 32 295 11.3 19.3 0.00 0.00 0.00 59 1010.7
20260905195757 32 303 12.9 16.1 0.00 0.00 0.00 59 1010.7
20260905195257 32 320 4.8 17.7 0.00 0.00 0.00 59 1010.8
20260905194757 32 295 14.5 17.7 0.00 0.00 0.00 59 1010.9
20260905194257 32 319 8.0 19.3 0.00 0.00 0.00 59 1010.8
20260905193757 32 288 11.3 24.1 0.00 0.00 0.00 60 1010.8
20260905193257 32 265 16.1 20.9 0.00 0.00 0.00 60 1011.0
20260905192757 32 252 12.9 17.7 0.00 0.00 0.00 59 1011.2
20260905192257 32 275 9.7 19.3 0.00 0.00 0.00 60 1011.3
20260905191757 32 295 6.4 16.1 0.00 0.00 0.00 61 1011.4
20260905191257 32 279 4.8 16.1 0.00 0.00 0.00 62 1011.6
20260905190756 31 334 9.7 14.5 0.00 0.00 0.00 63 1011.4
20260905190256 31 324 3.2 16.1 0.00 0.00 0.00 64 1011.3
20260905185756 31 344 12.9 16.1 0.00 0.00 0.00 63 1011.3
20260905185256 31 16 8.0 19.3 0.00 0.00 0.00 63 1011.4
20260905184756 31 360 8.0 17.7 0.00 0.00 0.00 64 1011.4
20260905184256 31 265 9.7 14.5 0.00 0.00 0.00 64 1011.5
20260905183756 31 302 3.2 12.9 0.00 0.00 0.00 64 1011.7
20260905183256 31 220 1.6 11.3 0.00 0.00 0.00 64 1011.8
20260905182756 31 280 1.6 17.7 0.00 0.00 0.00 63 1011.8
20260905182256 31 321 12.9 17.7 0.00 0.00 0.00 63 1011.9
20260905181756 31 288 8.0 20.9 0.00 0.00 0.00 65 1012.0
20260905181256 31 337 0.0 8.0 0.00 0.00 0.00 65 1012.0
20260905180756 31 286 0.0 12.9 0.00 0.00 0.00 65 1012.2
20260905180256 31 286 0.0 17.7 0.00 0.00 0.00 64 1012.1
20260905175756 31 271 6.4 20.9 0.00 0.00 0.00 67 1012.1
20260905175256 31 313 8.0 11.3 0.00 0.00 0.00 66 1012.2
20260905174756 31 345 6.4 16.1 0.00 0.00 0.00 67 1012.2
20260905174256 30 286 4.8 16.1 0.00 0.00 0.00 68 1012.4
20260905173756 30 286 12.9 14.5 0.00 0.00 0.00 68 1012.6
20260905173256 30 268 6.4 22.5 0.00 0.00 0.00 69 1012.6
20260905172756 30 309 6.4 17.7 0.00 0.00 0.00 70 1012.6
20260905172256 30 261 4.8 16.1 0.00 0.00 0.00 69 1012.5
20260905171756 30 295 8.0 19.3 0.00 0.00 0.00 69 1012.6
20260905171256 30 292 6.4 19.3 0.00 0.00 0.00 71 1012.7
20260905170756 30 244 4.8 22.5 0.00 0.00 0.00 71 1012.8
20260905170256 30 302 4.8 9.7 0.00 0.00 0.00 70 1012.9
20260905165756 29 300 0.0 22.5 0.00 0.00 0.00 74 1013.0
20260905165256 29 269 8.0 14.5 0.00 0.00 0.00 74 1013.2
20260905164756 29 31 1.6 12.9 0.00 0.00 0.00 73 1013.3
20260905164256 29 334 8.0 17.7 0.00 0.00 0.00 73 1013.4
20260905163756 29 289 9.7 12.9 0.00 0.00 0.00 74 1013.6
20260905163256 29 15 0.0 16.1 0.00 0.00 0.00 75 1013.6
20260905162756 29 312 11.3 16.1 0.00 0.00 0.00 75 1013.7
20260905162256 29 276 3.2 11.3 0.00 0.00 0.00 77 1013.7
20260905161756 28 276 3.2 14.5 0.00 0.00 0.00 79 1013.8
20260905161256 28 295 9.7 16.1 0.00 0.00 0.00 79 1013.9
20260905160756 28 290 9.7 16.1 0.00 0.00 0.00 80 1014.1
20260905160256 28 286 1.6 16.1 0.00 0.00 0.00 81 1014.2
20260905155756 28 327 4.8 19.3 0.00 0.00 0.00 80 1014.1
20260905155256 28 278 8.0 14.5 0.00 0.00 0.00 84 1014.2
20260905154756 27 324 8.0 14.5 0.00 0.00 0.00 85 1014.4
20260905154256 27 343 11.3 17.7 0.00 0.00 0.00 85 1014.5
20260905153756 27 343 9.7 14.5 0.00 0.00 0.00 86 1014.4
20260905153255 27 317 9.7 17.7 0.00 0.00 0.00 87 1014.4
20260905152755 27 296 0.0 14.5 0.00 0.00 0.00 89 1014.5
20260905152255 27 309 8.0 14.5 0.00 0.00 0.00 90 1014.5
20260905151755 27 307 8.0 14.5 0.00 0.00 0.00 91 1014.4
20260905151255 27 347 6.4 14.5 0.00 0.00 0.00 93 1014.4
20260905150755 27 296 4.8 16.1 0.00 0.00 0.00 94 1014.4
20260905150255 27 317 9.7 16.1 0.00 0.00 0.00 96 1014.4
20260905145755 27 309 4.8 19.3 0.00 0.00 0.00 96 1014.3
20260905145255 26 268 16.1 14.5 0.00 0.00 0.00 96 1014.4
20260905144755 27 299 6.4 9.7 0.00 0.00 0.00 96 1014.4
20260905144255 26 309 4.8 11.3 0.00 0.00 0.00 97 1014.3
20260905143755 26 303 3.2 11.3 0.00 0.00 0.00 97 1014.4
20260905143255 26 273 6.4 14.5 0.00 0.00 0.00 97 1014.3
20260905142755 26 305 1.6 16.1 0.00 0.00 0.00 97 1014.3
20260905142255 26 297 8.0 11.3 0.00 0.00 0.00 98 1014.3
20260905141755 26 300 11.3 12.9 0.00 0.00 0.00 98 1014.3
20260905141255 26 326 6.4 12.9 0.00 0.00 0.00 98 1014.4
20260905140755 26 303 9.7 14.5 0.00 0.00 0.00 98 1014.5
20260905140255 25 302 4.8 14.5 0.00 0.00 0.00 99 1014.4
20260905135755 25 262 3.2 14.5 0.00 0.00 0.00 99 1014.4
20260905135255 25 268 8.0 12.9 0.00 0.00 0.00 99 1014.3
20260905134755 25 295 11.3 12.9 0.00 0.00 0.00 99 1014.3
20260905134255 25 310 11.3 11.3 0.00 0.00 0.00 99 1014.2
20260905133755 25 282 8.0 14.5 0.00 0.00 0.00 99 1014.2
20260905133255 25 283 6.4 12.9 0.00 0.00 0.00 99 1014.3
20260905132755 25 284 8.0 11.3 0.00 0.00 0.00 99 1014.2
20260905132255 25 288 8.0 11.3 0.00 0.00 0.00 99 1014.1
20260905131755 25 275 8.0 9.7 0.00 0.00 0.00 99 1014.1